Погода в Седоне

США     34°52′10″N   111°45′36″W
темп.,
°C
ветер,
м/с
пор.,
м/с
влажн.,
%
обл.,
%
осадки,
мм/ч
давл.,
гПа
погр.,
м
28 июля, ср
ср2800:00+25ююв224595 0.0 101612
03:00+22в22535 0.0 101713
06:00+21всв115971 0.0 101811
09:00+25юз10489 0.0 1018348
12:00+29зюз22386 0.0 1017913
15:00+32ю322744 0.0 10142428
18:00+22св10136438 3.7 1016399
21:00+24всв1257100 0.2 101514
29 июля, чт
чт2900:00+23всв215844 0.2 101614
03:00+22всв22575 0.0 101512
06:00+21всв22553 0.0 101514
09:00+25з004496 0.0 1015296
12:00+30юз223563 0.0 1014941
15:00+27юв121051100 1.6 10121166
18:00+21ссв3567100 19.4 1015359
21:00+21св2270100 0.1 101631
30 июля, пт
пт3000:00+21с117289 0.1 101517
03:00+21ссв017293 0.0 101613
06:00+21в116872 0.0 101513
09:00+24с11531 0.1 1016351
12:00+28юз33435 0.1 1015923
15:00+31ю463156 0.1 10132832
18:00+25св565391 0.3 1014210
21:00+22св2366100 0.8 1016141
31 июля, сб
сб3100:00+21всв11634 0.9 101714
03:00+20св337079 0.6 101841
06:00+19св11705 0.6 101712
09:00+24ссв2252100 0.0 1018262
12:00+29зюз333713 0.0 10161156
15:00+27св444585 0.0 10161002
18:00+23в5564100 0.7 1016122
21:00+23с126672 1.3 101823
1 августа, вс
вс100:00+21св227286 2.3 101841
03:00+20св11735 0.0 101711
06:00+20всв226829 0.1 101712
09:00+24зсз115090 0.0 1018241
12:00+28зюз11417 0.0 1016641
15:00+25всв1095897 1.5 1016440
18:00+25св3457100 4.6 1017427
21:00+21сз1273100 0.1 1019101